Location: Joplin, MO
(37.0842°N, 94.5133°W)
Time: 14:40:36
(UTC+02:00)

Vanguard 2 - Visible Passes

Search period start: 26 March 2023 00:00
Search period end: 05 April 2023 01:00
Orbit: 553 x 2927 km, 32.9° (Epoch: 25 March)

Date Brightness Start Highest point End Pass type
(mag) Time Alt. Az. Time Alt. Az. Time Alt. Az.
26 Mar 11.3 10:45:26 20° SSE 10:51:39 25° SE 11:03:51 10° E visible
26 Mar 10.7 12:46:44 12° SW 13:02:43 51° SSE 13:16:35 10° E visible
27 Mar 11.1 11:00:55 25° S 11:07:41 32° SE 11:21:21 10° E visible
27 Mar 10.6 13:02:12 11° SW 13:19:03 59° SSE 13:33:07 10° E visible
28 Mar 11.6 09:15:00 13° SE 09:15:00 13° SE 09:20:18 10° ESE visible
28 Mar 10.9 11:16:17 29° S 11:23:44 39° SE 11:38:25 10° E visible
28 Mar 10.5 13:17:48 10° WSW 13:35:26 65° SSE 13:49:34 10° E visible
29 Mar 11.4 09:30:17 19° SE 09:30:17 19° SE 09:40:04 10° E visible
29 Mar 10.7 11:31:34 31° SSW 11:39:51 47° SSE 11:55:12 10° E visible
29 Mar 10.5 13:34:01 10° WSW 13:51:51 71° SSE 14:05:58 10° E visible
30 Mar 11.1 09:45:28 26° SE 09:45:28 26° SE 09:58:12 10° E visible
30 Mar 10.6 11:46:44 31° SSW 11:56:01 54° SSE 12:11:49 10° E visible
31 Mar 10.9 10:00:35 33° SE 10:01:06 33° SE 10:15:37 10° E visible
31 Mar 10.5 12:01:50 30° SW 12:12:16 61° SSE 12:28:20 10° E visible
01 Apr 10.6 10:15:36 40° SSE 10:16:59 40° SE 10:32:38 10° E visible
01 Apr 10.4 12:16:51 26° SW 12:28:35 67° SSE 12:44:47 10° E visible
02 Apr 11.5 08:29:19 15° ESE 08:29:19 15° ESE 08:33:21 10° E visible
02 Apr 10.4 10:30:34 46° SSE 10:32:57 48° SSE 10:49:22 10° E visible
02 Apr 10.4 12:31:49 22° WSW 12:44:58 72° SSE 13:01:12 10° E visible
03 Apr 11.3 08:44:13 21° ESE 08:44:13 21° ESE 08:51:25 10° E visible
03 Apr 10.3 10:45:28 50° S 10:49:01 55° SSE 11:05:58 10° E visible
03 Apr 10.4 12:46:42 18° WSW 13:01:24 75° S 13:17:35 10° E visible
04 Apr 11.0 08:59:05 29° ESE 08:59:05 29° ESE 09:08:48 10° E visible
04 Apr 10.2 11:00:19 50° SSW 11:05:10 62° SSE 11:22:29 10° E visible
04 Apr 10.4 13:01:33 13° W 13:17:51 77° S 13:33:56 10° E visible
